sat.trackr.live / text

‹ back to catalog

STARLINK-36815

NORAD 68313 · 2026-057V

PAYLOAD ACTIVE UNKNOWN

§ Identity

Operator
Country
US
Launch date
2026-03-20
Launch site
AFWTR
Launch vehicle
Mass (kg)
RCS (m²)

Purposes: comms

External: N2YO · Heavens-Above · Gunter

§ Orbital elements

Epoch: 2026-05-24T21:03:15.861024Z

Period
91.42 min
Inclination
97.2848°
Eccentricity
0.0001124
Mean motion
15.75185787 rev/d
Perigee alt
343.3 km
Apogee alt
344.9 km
Semi-major
6,722.2 km
B*
1.8460e-3
RAAN
271.1852°
Arg perigee
106.9655°
Mean anomaly
253.1733°
Rev number
1,028

§ Raw data

STARLINK-368151 68313U 26057V   26144.87726691  .00284544  00000+0  18460-2 0  99912 68313  97.2848 271.1852 0001124 106.9655 253.1733 15.75185787 10286

JSON: /api/v1/satellites/68313 · /tle

For live sub-satellite position, see the globe view (requires WebGL).

§ Visibility from observer

Set your observer location to see the next 7 days of passes ≥ 10°. The values pass through the URL so the page stays shareable.

No JS? Fill the form by hand. The geolocation button needs JavaScript.